Voltar ao catálogo

USA 23

AtivoNavegaçãoLEO
NORAD 18009·PAYLOAD·🇺🇸 United States

Lançado May 15, 1987 de Vandenberg Space Force Base

Loading…

Próximas Passagens (próximas 24 horas)

TLE

AtualizadoSource: Space-Track

Época: Sep 14, 2026, 14:25 UTC

1 18009U 87043E   26257.60108691  .00008323  00000-0  50517-3 0  9990
2 18009  63.2923 106.6476 0773363 107.0424 261.6779 13.88693329357906

Acompanhe USA 23 em tempo real com AllMySat

Download on the App Store